This is the latest recevied weather packets stored in our database for station/object SR8WXB-1. If no packets are shown the sender has not sent any weather packets the latest 1 day(s).
| Time | Temp. | Humidity | Pressure | Rain* | Wind** | Luminosity | Snow |
|---|---|---|---|---|---|---|---|
| 1777968975 | 18.89° C | 100% | 942 hPa | - | 10.73 m/s, 243° | - | - |
| 1777968735 | 18.89° C | 100% | 942 hPa | - | 8.94 m/s, 249° | - | - |
| 1777968495 | 18.89° C | 100% | 942 hPa | - | 12.52 m/s, 247° | - | - |
| 1777968255 | 18.89° C | 100% | 942 hPa | - | 11.62 m/s, 247° | - | - |
| 1777968015 | 18.89° C | 100% | 942.1 hPa | - | 10.73 m/s, 247° | - | - |
| 1777967773 | 18.89° C | 100% | 942.1 hPa | - | 11.18 m/s, 245° | - | - |
| 1777967533 | 18.33° C | 100% | 942 hPa | - | 10.73 m/s, 249° | - | - |
| 1777967293 | 18.33° C | 100% | 942.1 hPa | - | 9.83 m/s, 245° | - | - |
| 1777967053 | 18.33° C | 100% | 942.1 hPa | - | 8.94 m/s, 243° | - | - |
| 1777966813 | 18.33° C | 100% | 942.1 hPa | - | 7.6 m/s, 241° | - | - |
| 1777966570 | 18.33° C | 100% | 942.1 hPa | - | 7.15 m/s, 251° | - | - |
| 1777966330 | 18.33° C | 100% | 942.1 hPa | - | 7.15 m/s, 243° | - | - |
| 1777966090 | 18.33° C | 100% | 942.1 hPa | - | 7.15 m/s, 251° | - | - |
| 1777965850 | 17.78° C | 100% | 942.1 hPa | - | 5.81 m/s, 245° | - | - |
| 1777965610 | 17.78° C | 100% | 942.1 hPa | - | 5.81 m/s, 234° | - | - |
| 1777965367 | 17.22° C | 100% | 942.2 hPa | - | 4.47 m/s, 236° | - | - |
| 1777965127 | 17.22° C | 100% | 942.2 hPa | - | 4.92 m/s, 236° | - | - |
| 1777964887 | 17.22° C | 100% | 942.2 hPa | - | 4.92 m/s, 236° | - | - |
| 1777964407 | 16.67° C | 100% | 942.2 hPa | - | 4.92 m/s, 235° | - | - |
| 1777964164 | 16.67° C | 100% | 942.2 hPa | - | 6.26 m/s, 238° | - | - |
| 1777963924 | 16.67° C | 100% | 942.2 hPa | - | 4.92 m/s, 236° | - | - |
| 1777963684 | 16.11° C | 100% | 942.2 hPa | - | 5.81 m/s, 232° | - | - |
| 1777963444 | 16.11° C | 100% | 942.3 hPa | - | 4.47 m/s, 234° | - | - |
| 1777963204 | 16.11° C | 100% | 942.3 hPa | - | 4.47 m/s, 236° | - | - |
| 1777962961 | 16.11° C | 100% | 942.3 hPa | - | 4.92 m/s, 235° | - | - |
* Rain since midnight (hover to see other rain measurements)
** Current wind speed in m/s (hover to see current wind gust speed)